Skip Page Navigation
NASA JPL Caltech
NASA Logo - Jet Propulsion Laboratory + View the NASA Portal
+ Center for Near-Earth Object Studies
JPL Home Earth Solar System Stars & Galaxies Technology
JPL Solar System Dynamics
BODIES ORBITS EPHEMERIDES TOOLS PHYSICAL DATA DISCOVERY FAQ SITE MAP
JPL Small-Body Database Browser
Search: [ help ]  
15607 (2000 GA124)
Classification: Main-belt Asteroid          SPK-ID: 2015607
Ephemeris | Orbit Diagram | Orbital Elements | Mission Design | Physical Parameters | Discovery Circumstances | Close-Approach Data ]

[ show orbit diagram ]
Orbital Elements at Epoch 2459200.5 (2020-Dec-17.0) TDB
Reference: JPL 33 (heliocentric ecliptic J2000)
 Element Value Uncertainty (1-sigma)   Units 
e .2729921665428139 2.4358e-08  
a 2.444489143690235 6.4357e-09 au
q 1.77716275626385 6.13e-08 au
i 7.583847383688034 8.5426e-07 deg
node 108.6282245074209 1.2866e-05 deg
peri 276.3633692613258 1.2583e-05 deg
M 348.060846435207 5.8051e-06 deg
tp 2459246.796870322734
(2021-Feb-01.29687032)
2.2615e-05 TDB
period 1395.984499716362
3.82
5.5129e-06
1.509e-08
d
yr
n .2578825195216317 1.0184e-09 deg/d
Q 3.11181553111662 8.1926e-09 au
  Orbit Determination Parameters
   # obs. used (total)      2196  
   data-arc span      14529 days (39.78 yr)  
   first obs. used      1981-05-01  
   last obs. used      2021-02-09  
   planetary ephem.      DE441  
   SB-pert. ephem.      SB441-N16  
   condition code      0  
   norm. resid. RMS      .46673  
   source      ORB  
   producer      Otto Matic  
   solution date      2021-Apr-13 01:03:50  

Additional Information
 Earth MOID = .799418 au 
 Jupiter MOID = 2.38575 au 
 T_jup = 3.436 
[ show covariance matrix ]

Ephemeris | Orbit Diagram | Orbital Elements | Mission Design | Physical Parameters | Discovery Circumstances | Close-Approach Data ]

Physical Parameter Table
Parameter Symbol Value Units Sigma Reference Notes
absolute magnitude H 13.88   n/a E2021B10  
diameter diameter 8.732 km 0.051 urn:nasa:pds:neowise_diameters_albedos::2.0[mainbelt] (http://adsabs.harvard.edu/abs/2011ApJ...741...68M)  
rotation period rot_per 3.588 h n/a LCDB (Rev. 2020-October); Warner et al., 2009 Published Reference List:
[Higgins, D.; Pravec, P.; Kusnirak, P.; Reddy, V.; Dyvig, R. (2006) Minor Planet Bull. 33, 64-66.]
[Pravec, P.; Wolf, M.; Sarounova, L. (2009) http://www.asu.cas.cz/~ppravec/neo.htm]
geometric albedo albedo 0.067   0.006 urn:nasa:pds:neowise_diameters_albedos::2.0[mainbelt] (http://adsabs.harvard.edu/abs/2011ApJ...741...68M)  

15607 (2000 GA124)          Discovered 2000-Apr-07 by LINEAR at Socorro
Reference: 20000621/Numbers.arcLast Updated: 2004-04-19

[ show close-approach data ]
Alternate Designations
 2000 GA124 = 1982 SQ = 1982 TO3 = 1986 XP = 1999 CC37 
Ephemeris | Orbit Diagram | Orbital Elements | Mission Design | Physical Parameters | Discovery Circumstances | Close-Approach Data ]
ABOUT SSD CREDITS/AWARDS PRIVACY/COPYRIGHT GLOSSARY LINKS
FirstGov 2021-Apr-14 12:21 UT
(server date/time)  
NASA Home Page
Site Manager:   Ryan S. Park
Webmaster  Alan B. Chamberlin